Content
SEND FEEDBACK

Daily
Averages
Monthly
Summary
Canada

AMHERST, NOVA SCOTIA


Home > North America > Canada > Nova Scotia
Elevation: 66 feet     Latitude: 45 46N     Longitude: 064 15W

WEATHER
 
SELECT A DAY
Number of Records: 97,306;   Date Range: 6/19/04 - 9/15/14
 
SHARE

PRINT THIS DATA

[ ← Previous Day ]
WEATHER ALMANAC - MARCH 26, 2013
[ Next Day → ]
[ °C ]   °F
Weather ElementAverageHighLow
Temperature32.1 °F36.1 °F (4:00 pm)27.3 °F (7:00 am)
Dewpoint29.3 °F33 °F (3:00 pm)25.3 °F (7:00 am)
Humidity88.7 %94 % (9:00 pm)82 % (9:00 am)
Barometer29.44 in29.57 in (1:00 am)29.37 in (12:00 pm)
Wind Speed12.8 mph19.6 mph (6:00 pm)
Wind Gust27.6 mph (6:00 pm)
Weather ElementAverage
Wind DirectionWSW (240 °)

Weather ElementTotal
Precipitation0.01 in
Heating Degree Days33.3 (Base 65)
Averaged from 27 records on March 26, 2013
WEATHER CONDITIONS BREAKOUT
WIND DIRECTION BREAKOUT
WEATHER BY HOUR - MARCH 26, 2013
[ °C ]   °F
Local TimeTemperatureDewpointHumidityBarometerVisibilityWind DirectionWind SpeedGust SpeedPrecipitationEventsConditions
1:00 AM30.0 °F25.9 °F85 %29.57 inNE (40°)8.1 mph
2:00 AM29.5 °F26.2 °F88 %29.56 inNE (50°)5.8 mph
3:00 AM29.0 °F26.0 °F86 %29.52 inNE (40°)10.4 mph
3:00 AM29.1 °F26.4 °F90 %29.52 inNE (40°)10.4 mph19.6 mph
4:00 AM29.5 °F26.8 °F90 %29.50 inNNE (30°)8.1 mph
5:00 AM28.9 °F26.4 °F90 %29.48 inNNE (20°)13.8 mph
6:00 AM28.6 °F25.9 °F90 %29.44 inNNE (20°)13.8 mph
7:00 AM27.3 °F25.3 °F92 %29.43 inNorth (10°)9.2 mph
8:00 AM28.9 °F27.1 °F93 %29.43 inNorth (350°)6.9 mph
9:00 AM30.0 °F27.0 °F82 %29.44 inNorth4.6 mph
9:00 AM30.0 °F26.6 °F87 %29.44 inNorth (360°)4.6 mph
10:00 AM31.3 °F27.0 °F84 %29.43 inNNW (340°)6.9 mph0.01 in
11:00 AM34.0 °F29.7 °F84 %29.39 inNNW (340°)16.1 mph
12:00 PM34.7 °F31.5 °F88 %29.37 inNorth (350°)15.0 mph
1:00 PM34.9 °F31.5 °F87 %29.38 inNorth (350°)13.8 mph
2:00 PM34.7 °F31.5 °F88 %29.38 inNorth (350°)15.0 mph
3:00 PM35.0 °F33.0 °F87 %29.39 inNorth (350°)18.4 mph
3:00 PM34.7 °F31.5 °F88 %29.39 inNorth (350°)18.4 mph
4:00 PM36.1 °F31.3 °F83 %29.39 inNNW (340°)18.4 mph
5:00 PM35.2 °F31.3 °F85 %29.41 inNNW (340°)18.4 mph
6:00 PM34.3 °F31.8 °F90 %29.42 inNorth (350°)19.6 mph27.6 mph
7:00 PM34.0 °F32.0 °F92 %29.44 inNorth (350°)16.1 mph
8:00 PM33.8 °F31.8 °F92 %29.45 inNorth (350°)16.1 mph
9:00 PM33.0 °F32.0 °F94 %29.46 inNNW (340°)15.0 mph
9:00 PM33.4 °F32.0 °F94 %29.46 inNNW (340°)15.0 mph20.7 mph
10:00 PM33.6 °F31.8 °F93 %29.46 inNNW (340°)13.8 mph
11:00 PM33.6 °F32.0 °F94 %29.46 inNNW (340°)13.8 mph
Hourly data recorded from CXNP, located miles away from Amherst, Nova Scotia







STORIES FROM OUR PARTNERS